[[{"header":{"parameterUnit":"m.s-1","parameterCategory":1,"la1":30.2991,"la2":30.254,"lo1":-89.0895,"lo2":-89.0444,"dy":0.0017,"dx":0.0017,"nx":28,"ny":28,"refTime":"2025-08-21T21:00:00:Z","depth":0,"parameterNumber":2,"parameterNumberName":"U-component_of_WINDS"},"data":[0,0,0,0,0,0,0,0,0,0,0,0,0,0,0,0,0,0,0,0,0,0,0,0,0,0,0,0,0,0,0,0,0,0,0,0,0,0,0,0,0,0,0,0,0,0,0,0,0,0,0,0,0,0,0,0,0,0,-3.7788,-3.7789,0,-3.7801,-3.7801,-3.7801,-3.7764,-3.7763,-3.7762,-3.7761,-3.7773,-3.7774,-3.7776,0,0,0,0,0,0,0,0,0,0,0,0,0,-3.7729,-3.773,-3.7788,-3.7789,-3.7789,-3.7801,-3.7801,-3.7801,-3.7765,-3.7763,-3.7762,-3.7761,-3.7773,-3.7774,-3.7776,0,0,0,0,0,0,0,0,0,0,0,0,0,-3.7749,-3.773,-3.7788,-3.7772,-3.7771,-3.7801,-3.7801,-3.7802,-3.7765,-3.7763,-3.7762,-3.776,-3.7772,-3.7774,-3.7776,-3.7823,0,0,-3.7782,-3.7783,0,0,0,0,0,0,0,0,-3.7748,-3.7752,-3.7774,-3.7773,-3.7772,-3.7779,-3.7785,-3.7809,-3.7765,-3.7767,-3.7761,-3.7759,-3.7777,-3.7778,-3.7784,-3.7824,-3.7824,-3.7783,-3.7784,-3.7785,-3.7785,0,0,0,0,0,0,0,-3.7747,-3.7751,-3.7793,-3.7774,-3.7773,-3.7763,-3.7764,-3.7789,-3.7781,-3.7767,-3.7764,-3.7766,-3.7775,-3.7782,-3.7784,-3.7824,-3.7783,-3.7784,-3.7786,-3.7786,-3.7897,-3.7899,0,0,0,0,0,0,-3.7748,-3.775,-3.7793,-3.7794,-3.7755,-3.7765,-3.7766,-3.7779,-3.7781,-3.7779,-3.7768,-3.7764,-3.778,-3.7782,-3.7785,-3.7836,-3.7785,-3.7787,-3.7788,-3.7896,-3.7898,-3.7899,0,0,0,0,0,0,-3.7747,-3.7752,-3.7792,-3.7771,-3.7775,-3.7768,-3.7782,-3.778,-3.7787,-3.7781,-3.778,-3.7776,-3.7778,-3.7782,-3.7813,-3.7836,-3.7788,-3.7789,-3.7894,-3.7896,-3.7899,-3.7941,0,0,0,0,0,0,-3.7745,-3.7752,-3.7771,-3.7772,-3.7777,-3.7822,-3.7784,-3.7781,-3.779,-3.7786,-3.7789,-3.7788,-3.7777,-3.781,-3.7815,-3.7838,-3.7791,-3.7891,-3.7895,-3.7898,-3.7938,-3.7945,-3.7951,0,0,0,0,0,-3.7743,-3.7783,-3.7772,-3.7777,-3.78,-3.7823,-3.7826,-3.7813,-3.7793,-3.781,-3.7806,-3.7788,-3.7833,-3.7813,-3.7819,-3.7843,-3.789,-3.7894,-3.7898,-3.7935,-3.7944,-3.7951,0,0,0,0,0,0,-3.7786,-3.7783,-3.7771,-3.7812,-3.7818,-3.7817,-3.7839,-3.7824,-3.7836,-3.7831,-3.7815,-3.7816,-3.7849,-3.7849,-3.7827,-3.7886,-3.7858,-3.7863,-3.7884,-3.7892,-3.7899,-3.7897,-3.7793,0,0,0,0,0,-3.78,-3.782,-3.7816,-3.7853,-3.7857,-3.7847,-3.7857,-3.7847,-3.7852,-3.7854,-3.7853,-3.7858,-3.7872,-3.7883,-3.7897,-3.7938,-3.7936,-3.7957,-3.7964,-3.7969,-3.7973,-3.7991,-3.7999,-3.7912,-3.7912,-3.7912,0,0,-3.783,-3.7831,-3.7844,-3.7862,-3.7865,-3.7884,-3.785,-3.7873,-3.7886,-3.7857,-3.7886,-3.7885,-3.7889,-3.7924,-3.794,-3.7925,-3.7997,-3.7974,-3.7979,-3.7979,-3.7995,-3.8004,-3.8011,-3.7915,-3.7914,-3.7914,0,0,-3.7893,-3.7897,-3.7926,-3.7929,-3.7934,-3.7927,-3.7934,-3.7935,-3.7933,-3.7961,-3.7939,-3.7954,-3.7981,-3.7983,-3.7988,-3.8048,-3.803,-3.8053,-3.8088,-3.8105,-3.8112,-3.8118,-3.8136,-3.8143,-3.8058,-3.8058,-3.8058,0,-3.7929,-3.7958,-3.7943,-3.7966,-3.7973,-3.7947,-3.7975,-3.7979,-3.7988,-3.7993,-3.7977,-3.8007,-3.8009,-3.8042,-3.8056,-3.8063,-3.8068,-3.8053,-3.8113,-3.8118,-3.8124,-3.814,-3.8148,-3.806,-3.806,-3.806,-3.806,0,-3.8,-3.802,-3.8043,-3.805,-3.806,-3.8086,-3.8073,-3.8084,-3.8072,-3.8066,-3.8093,-3.8093,-3.8105,-3.8112,-3.8102,-3.8143,-3.8133,-3.8116,-3.8087,-3.8135,-3.815,-3.8157,-3.8064,-3.8063,-3.8062,-3.8062,0,0,-3.8092,-3.8089,-3.8097,-3.8099,-3.8101,-3.8115,-3.8138,-3.8148,-3.8156,-3.8163,-3.818,-3.8201,-3.8183,-3.8189,-3.8178,-3.8194,-3.8236,-3.8173,-3.8172,-3.8182,-3.8278,-3.8289,-3.8297,-3.8225,-3.8226,-3.8227,-3.8276,0,-3.8151,-3.819,-3.8176,-3.8215,-3.8231,-3.8205,-3.8225,-3.8227,-3.8221,-3.8233,-3.8226,-3.8241,-3.8218,-3.822,-3.8235,-3.8228,-3.8255,-3.8225,-3.8238,-3.8238,-3.8235,-3.8306,-3.832,-3.8366,-3.8282,-3.8283,-3.8284,0,-3.8226,-3.8234,-3.8274,-3.8269,-3.8275,-3.8293,-3.8299,-3.8312,-3.8312,-3.8307,-3.8311,-3.8296,-3.8315,-3.8287,-3.8312,-3.8292,-3.8296,-3.8293,-3.8295,-3.8294,-3.8263,-3.8304,-3.8381,-3.8387,-3.8294,-3.8293,-3.8293,0,-3.8285,-3.8305,-3.8331,-3.8334,-3.833,-3.8342,-3.8341,-3.834,-3.8345,-3.8351,-3.8354,-3.8362,-3.8366,-3.8371,-3.8357,-3.8339,-3.8383,-3.8355,-3.8376,-3.8376,-3.8386,-3.8385,-3.8461,-3.8393,-3.8393,-3.8392,-3.8392,0,-3.8351,-3.8376,-3.8357,-3.8372,-3.8398,-3.8381,-3.8407,-3.8403,-3.8401,-3.8414,-3.8393,-3.8405,-3.8387,-3.8396,-3.8386,-3.8405,-3.8408,-3.8402,-3.8399,-3.8403,-3.8403,-3.8404,-3.84,-3.8394,-3.8394,-3.8393,-3.8393,0,-3.8421,-3.8409,-3.8435,-3.8428,-3.8427,-3.8446,-3.8439,-3.8452,-3.8444,-3.846,-3.8463,-3.845,-3.846,-3.8446,-3.8456,-3.8448,-3.8474,-3.8467,-3.8474,-3.8471,-3.8492,-3.8489,-3.857,-3.8578,-3.8507,-3.8508,-3.8508,0,-3.8464,-3.8482,-3.8476,-3.8482,-3.8482,-3.8494,-3.8499,-3.8482,-3.8488,-3.8487,-3.85,-3.8508,-3.8513,-3.853,-3.852,-3.8526,-3.8517,-3.8545,-3.8518,-3.852,-3.8513,-3.8512,-3.8512,-3.855,-3.8551,-3.8551,-3.8552,0,-3.8539,-3.8531,-3.8539,-3.8545,-3.8551,-3.8555,-3.8557,-3.8563,-3.8545,-3.8552,-3.8561,-3.8565,-3.8573,-3.858,-3.8583,-3.858,-3.8562,-3.8561,-3.8565,-3.8569,-3.8571,-3.8566,-3.8486,-3.8559,-3.8558,-3.8557,-3.8557,-3.8557,-3.8594,-3.8607,-3.8604,-3.8613,-3.8612,-3.8613,-3.8624,-3.8616,-3.8623,-3.8628,-3.8617,-3.8628,-3.8625,-3.8626,-3.8625,-3.8632,-3.862,-3.8628,-3.8629,-3.863,-3.8632,-3.8571,-3.8633,-3.8633,-3.8632,-3.8632,-3.8632,0,-3.8665,-3.8661,-3.8669,-3.8671,-3.8677,-3.866,-3.866,-3.8666,-3.8676,-3.8674,-3.8679,-3.8688,-3.8693,-3.8684,-3.8687,-3.8694,-3.8686,-3.8696,-3.8694,-3.8693,-3.8645,-3.8639,-3.8702,-3.8702,-3.8702,-3.8702,-3.8702,-3.8702,-3.8703,-3.8723,-3.8714,-3.8732,-3.8728,-3.8738,-3.8739,-3.8739,-3.8737,-3.8748,-3.8752,-3.8745,-3.8739,-3.8741,-3.8745,-3.8742,-3.8743,-3.8755,-3.8748,-3.8703,-3.8697,-3.869,-3.8684,-3.8756,-3.8756,-3.8795,-3.8795,-3.8796]},{"header":{"parameterUnit":"m.s-1","parameterCategory":1,"la1":30.2991,"la2":30.254,"lo1":-89.0895,"lo2":-89.0444,"dy":0.0017,"dx":0.0017,"nx":28,"ny":28,"refTime":"2025-08-21T21:00:00:Z","depth":0,"parameterNumber":3,"parameterNumberName":"V-component_of_WINDS"},"data":[0,0,0,0,0,0,0,0,0,0,0,0,0,0,0,0,0,0,0,0,0,0,0,0,0,0,0,0,0,0,0,0,0,0,0,0,0,0,0,0,0,0,0,0,0,0,0,0,0,0,0,0,0,0,0,0,0,0,-0.4286,-0.4288,0,-0.4431,-0.4432,-0.4434,-0.4435,-0.4433,-0.4432,-0.443,-0.4592,-0.4598,-0.4604,0,0,0,0,0,0,0,0,0,0,0,0,0,-0.4025,-0.403,-0.4286,-0.4288,-0.429,-0.443,-0.4432,-0.4435,-0.4436,-0.4433,-0.4431,-0.4429,-0.459,-0.4598,-0.4605,0,0,0,0,0,0,0,0,0,0,0,0,0,-0.4151,-0.4031,-0.4286,-0.4307,-0.431,-0.443,-0.4433,-0.4435,-0.4436,-0.4433,-0.443,-0.4428,-0.4588,-0.4597,-0.4606,-0.4719,0,0,-0.4634,-0.4638,0,0,0,0,0,0,0,0,-0.4144,-0.4161,-0.4302,-0.4306,-0.4309,-0.4412,-0.44,-0.4531,-0.4437,-0.4389,-0.443,-0.4426,-0.4536,-0.4549,-0.4583,-0.4726,-0.4733,-0.4635,-0.464,-0.4644,-0.4647,0,0,0,0,0,0,0,-0.4135,-0.4155,-0.4344,-0.4304,-0.4309,-0.4314,-0.4329,-0.4425,-0.4477,-0.4393,-0.4393,-0.4409,-0.4537,-0.4574,-0.4586,-0.4736,-0.4634,-0.4642,-0.4648,-0.4652,-0.4983,-0.4986,0,0,0,0,0,0,-0.412,-0.4147,-0.4339,-0.4348,-0.4218,-0.4321,-0.4337,-0.4382,-0.4476,-0.4487,-0.4412,-0.4409,-0.456,-0.4576,-0.4592,-0.4732,-0.4644,-0.4653,-0.4658,-0.498,-0.4984,-0.4987,0,0,0,0,0,0,-0.4115,-0.4137,-0.4333,-0.4248,-0.4273,-0.4328,-0.4379,-0.4386,-0.4423,-0.449,-0.45,-0.4438,-0.4558,-0.4579,-0.4687,-0.4737,-0.4657,-0.4665,-0.4976,-0.4981,-0.4986,-0.5011,0,0,0,0,0,0,-0.4107,-0.4135,-0.4175,-0.4249,-0.4277,-0.4421,-0.4382,-0.4391,-0.4437,-0.4435,-0.4518,-0.4529,-0.4557,-0.4673,-0.4696,-0.4749,-0.4672,-0.4972,-0.4978,-0.4984,-0.5006,-0.5016,-0.5025,0,0,0,0,0,-0.4098,-0.4179,-0.4177,-0.42,-0.4328,-0.4424,-0.4441,-0.4468,-0.4441,-0.4484,-0.4527,-0.4526,-0.4728,-0.4684,-0.471,-0.4766,-0.4969,-0.4976,-0.4984,-0.5002,-0.5014,-0.5025,0,0,0,0,0,0,-0.4115,-0.4189,-0.4188,-0.4294,-0.4352,-0.4423,-0.4478,-0.448,-0.455,-0.4546,-0.4581,-0.46,-0.4707,-0.4748,-0.4698,-0.4882,-0.4846,-0.4859,-0.4851,-0.4863,-0.4873,-0.4861,-0.468,0,0,0,0,0,-0.413,-0.4197,-0.4261,-0.4349,-0.4377,-0.4423,-0.4466,-0.4481,-0.4545,-0.4571,-0.4622,-0.4687,-0.4766,-0.4817,-0.4893,-0.5012,-0.5032,-0.5064,-0.5073,-0.5081,-0.5092,-0.5161,-0.5176,-0.5012,-0.5012,-0.5012,0,0,-0.4164,-0.4213,-0.4254,-0.4353,-0.44,-0.4473,-0.4444,-0.4522,-0.4578,-0.4584,-0.4687,-0.4728,-0.4804,-0.4918,-0.4971,-0.4955,-0.5142,-0.509,-0.5096,-0.5103,-0.517,-0.5185,-0.5199,-0.5017,-0.5016,-0.5015,0,0,-0.4263,-0.4306,-0.4384,-0.4431,-0.45,-0.453,-0.4549,-0.4621,-0.4646,-0.4749,-0.4756,-0.4826,-0.496,-0.5014,-0.5059,-0.518,-0.5184,-0.5205,-0.5255,-0.5322,-0.5335,-0.5346,-0.5391,-0.5407,-0.5216,-0.5216,-0.5216,0,-0.4298,-0.4403,-0.4426,-0.4503,-0.4549,-0.4553,-0.4635,-0.4682,-0.4775,-0.4808,-0.4788,-0.4956,-0.5008,-0.5135,-0.5165,-0.5201,-0.5227,-0.5195,-0.533,-0.5342,-0.5353,-0.5397,-0.5414,-0.5218,-0.5218,-0.5217,-0.5217,0,-0.4443,-0.4517,-0.4573,-0.4657,-0.4709,-0.4789,-0.4828,-0.4879,-0.4891,-0.4924,-0.5032,-0.5094,-0.5183,-0.5215,-0.5229,-0.5346,-0.5334,-0.5321,-0.5286,-0.5371,-0.5412,-0.5429,-0.5221,-0.522,-0.5219,-0.5219,0,0,-0.4556,-0.4651,-0.4672,-0.4711,-0.4788,-0.4848,-0.4931,-0.5013,-0.5057,-0.5122,-0.5195,-0.5308,-0.5297,-0.5349,-0.537,-0.5428,-0.5522,-0.5409,-0.5412,-0.5429,-0.5658,-0.5667,-0.5686,-0.5525,-0.5528,-0.5531,-0.5652,0,-0.4664,-0.4804,-0.4828,-0.4953,-0.5023,-0.5029,-0.5102,-0.516,-0.5195,-0.5264,-0.5304,-0.5384,-0.5362,-0.5394,-0.5452,-0.5498,-0.5569,-0.549,-0.5597,-0.56,-0.5577,-0.5707,-0.5717,-0.5828,-0.5669,-0.5671,-0.5673,0,-0.4808,-0.4872,-0.5002,-0.5071,-0.5102,-0.5166,-0.5244,-0.5308,-0.5377,-0.5398,-0.5455,-0.547,-0.5561,-0.5521,-0.565,-0.5595,-0.5642,-0.5672,-0.5677,-0.5688,-0.5642,-0.5724,-0.5865,-0.5882,-0.5699,-0.5697,-0.5695,0,-0.4879,-0.4998,-0.5092,-0.5125,-0.5208,-0.5253,-0.5291,-0.5355,-0.5404,-0.5475,-0.5508,-0.559,-0.5636,-0.5702,-0.574,-0.5707,-0.5867,-0.583,-0.5891,-0.589,-0.5925,-0.5922,-0.6076,-0.5953,-0.5953,-0.5952,-0.5952,0,-0.4997,-0.5077,-0.5124,-0.5182,-0.5274,-0.5302,-0.5394,-0.5432,-0.549,-0.5559,-0.5572,-0.5638,-0.5683,-0.5758,-0.5789,-0.5892,-0.5913,-0.5936,-0.5944,-0.5935,-0.5932,-0.5966,-0.596,-0.5957,-0.5956,-0.5955,-0.5954,0,-0.5091,-0.5125,-0.5228,-0.5297,-0.5317,-0.5381,-0.5443,-0.5503,-0.5537,-0.5625,-0.5647,-0.5703,-0.5791,-0.5835,-0.5946,-0.5968,-0.6085,-0.6087,-0.606,-0.6063,-0.6122,-0.6116,-0.6303,-0.6331,-0.6189,-0.619,-0.6191,0,-0.5164,-0.5225,-0.53,-0.5344,-0.5382,-0.5454,-0.5503,-0.5535,-0.5587,-0.567,-0.572,-0.5807,-0.5879,-0.602,-0.6074,-0.616,-0.6166,-0.6226,-0.6179,-0.6169,-0.6169,-0.6165,-0.6172,-0.6234,-0.6236,-0.6237,-0.6238,0,-0.5291,-0.5305,-0.5371,-0.5445,-0.5502,-0.5563,-0.5623,-0.5661,-0.5704,-0.5762,-0.5849,-0.5904,-0.6015,-0.6104,-0.6194,-0.6239,-0.6248,-0.6252,-0.6271,-0.6263,-0.6245,-0.6257,-0.6083,-0.6247,-0.6246,-0.6246,-0.6245,-0.6245,-0.5378,-0.5433,-0.5493,-0.5569,-0.5617,-0.5673,-0.5732,-0.5772,-0.5844,-0.5933,-0.595,-0.6043,-0.6114,-0.6235,-0.6283,-0.636,-0.6348,-0.6375,-0.6382,-0.6389,-0.6392,-0.6231,-0.6377,-0.6377,-0.6377,-0.6377,-0.6376,0,-0.5506,-0.5545,-0.5614,-0.5695,-0.5756,-0.5753,-0.582,-0.5873,-0.5952,-0.6015,-0.6084,-0.6187,-0.6273,-0.6333,-0.6422,-0.6473,-0.6479,-0.6495,-0.6493,-0.6503,-0.6397,-0.6372,-0.6489,-0.6489,-0.6489,-0.6489,-0.6488,-0.6488,-0.558,-0.5673,-0.5694,-0.5814,-0.5854,-0.5941,-0.598,-0.6034,-0.6084,-0.6196,-0.6265,-0.6302,-0.6366,-0.646,-0.654,-0.6557,-0.659,-0.6606,-0.6623,-0.6522,-0.6511,-0.6499,-0.6476,-0.6612,-0.6613,-0.6723,-0.6724,-0.6724]}]]